Terminal Aerodrome Forecast
Issued by NWS

Home | Current Version | Previous Version | Text Only | Print | Product List | Glossary On
Versions: 1 2 3 4 5 6 7 8 9 10 11 12 13 14 15 16 17 18 19 20 21 22 23 24 25 26 27 28 29 30 31 32 33 34 35 36 37
000
FTUS41 KBUF 281700
TAFIAG
TAF
KIAG 281734Z 2818/2918 26014KT P6SM FEW020 BKN045
     FM282300 VRB03KT 5SM -SHSN BKN045 OVC050
     FM290400 14005KT 6SM -SHSN BKN020 OVC050
     FM290800 16007KT P6SM BKN035 OVC060
     FM291600 17009KT 4SM -SNRA OVC035=

USA.gov is the U.S. government's official web portal to all federal, state and local government web resources and services.